Regional Weather Roundup
Issued by NWS

Home | Current Version | Previous Version | Text Only | Print | Product List | Glossary Off
Versions: 1 2 3 4 5 6 7 8 9 10 11 12 13 14 15 16 17 18 19 20 21 22 23 24 25 26 27 28 29 30

000
ASUS45 KGTF 021910
RWRMT
MONTANA HOURLY WEATHER ROUNDUP
NATIONAL WEATHER SERVICE GREAT FALLS MT
100 PM MDT SAT MAY 02 2015

NOTE: "FAIR" INDICATES FEW OR NO CLOUDS BELOW 12000 FEET WITH NO
SIGNIFICANT WEATHER AND/OR OBSTRUCTIONS TO VISIBILITY.

MTZ001>007-043-022000-
WEST OF THE DIVIDE

CITY           SKY/WX    TMP DP  RH WIND       PRES   REMARKS
KALISPELL      CLEAR     66  14  13 W14G22    29.81F
MISSOULA       MOSUNNY   66  17  15 W13G24    29.88R
BUTTE          PTSUNNY   62  22  21 W12G21    29.88S
DEER LODGE       N/A     64  21  19 W3G20     29.88S
EUREKA           N/A     59  27  29 N6        29.87S
LIBBY            N/A     63   7  11 S8        29.86F
$$

MTZ008-052>055-022000-
SOUTHWEST MONTANA

CITY           SKY/WX    TMP DP  RH WIND       PRES   REMARKS
BOZEMAN        CLOUDY    64  26  23 S5        29.84F
DILLON         CLOUDY    68  18  14 W16G24    29.85F
$$

MTZ009-010-012-014-046-048-049-054-022000-
EAST SLOPES AND CENTRAL MONTANA

CITY           SKY/WX    TMP DP  RH WIND       PRES   REMARKS
CUT BANK       MOSUNNY   51  34  52 N10G17    29.85S
GREAT FALLS    SUNNY     64  32  30 NW16G24   29.78S
MALMSTROM AFB  SUNNY     63  31  30 N13G23    29.79R
HELENA         MOSUNNY   71  26  18 W17G29    29.80F
$$

MTZ011-013-016-021-045-047-050-051-022000-
NORTH CENTRAL MONTANA

CITY           SKY/WX    TMP DP  RH WIND       PRES   REMARKS
HAVRE          SUNNY     64  36  35 MISG      29.78R
LEWISTOWN      CLOUDY    67  26  21 NW20G30   29.77S
CHINOOK          N/A     64  36  34 NW8       29.77R
FORT BENTON      N/A     63  34  34 N13G21    29.78S
$$

MTZ017>020-022>042-056>058-061-062-022000-
EASTERN PLAINS

CITY           SKY/WX    TMP DP  RH WIND       PRES   REMARKS
BAKER          PTSUNNY   76  28  17 NW21G28   29.73F
BILLINGS       PTSUNNY   76  24  14 W17G29    29.76F
GLASGOW        SUNNY     70  35  27 NW9       29.70S
JORDAN           N/A     74  28  18 W13G21    29.71F
LIVINGSTON     MOSUNNY   70  22  16 SW30G40   29.80F
MILES CITY     SUNNY     79  27  14 NW14G28   29.71F
SIDNEY         SUNNY     75  34  22 W5        29.67F
WOLF POINT     SUNNY     74  35  24 VRB3      29.68F
BIG TIMBER       N/A     70  25  18 SW25G35   29.80S
FORSYTH          N/A     75  27  16 W8        29.72F
PLENTYWOOD       N/A     66  36  32 N10G16    29.69S
POPLAR           N/A     72  30  21 NW6       29.68F
$$

REGIONAL REPORTS...DAKOTAS

CITY           SKY/WX    TMP DP  RH WIND       PRES   REMARKS
WILLISTON      SUNNY     75  33  21 NW9       29.65F
MINOT          PTSUNNY   78  34  20 W9        29.59F
DICKINSON      CLOUDY    74  31  20 W15       29.67S
BEACH          FAIR      75  30  19 W14G24    29.70F
CROSBY         FAIR      68  32  26 NW16      29.67S
WATFORD CITY   FAIR      73  34  23 W10G17    29.64S
BISMARCK       PTSUNNY   84  40  21 W20G33    29.61F
GRAND FORKS    PTSUNNY   85  34  16 SW22G36   29.61F
FARGO          SUNNY     85  35  16 S17G24    29.68F
BUFFALO SD       N/A     77  27  15 NW21G36   29.68R
RAPID CITY     MOSUNNY   84  39  20 S14G22    29.71F
$$

REGIONAL REPORTS...WYOMING/IDAHO/WASHINGTON

CITY           SKY/WX    TMP DP  RH WIND       PRES   REMARKS
GILLETTE       MOSUNNY   73  27  18 NW9       29.83F
SHERIDAN       PTSUNNY   68  30  24 SE3       29.82F
BUFFALO WY     PTSUNNY   70  27  20 VRB6      29.87F
CODY           MOSUNNY   72  19  14 W12G26    29.84F
YELLOWSTONE LA   N/A     58   9  14 SW8G21    30.02F
IDAHO FALLS    MOSUNNY   76  30  18 SW14G24   29.88F
SALMON         PTSUNNY   63  25  23 CALM      29.83F
BOISE          SUNNY     71  27  19 VRB3      29.88F
SPOKANE        MOSUNNY   61  22  22 NW13      29.95F
$$

REGIONAL REPORTS...ALBERTA

CITY           SKY/WX    TMP DP  RH WIND       PRES   REMARKS
EDMONTON       PTSUNNY   50  28  43 NW12G21   29.81F
CALGARY        PTSUNNY   48  19  32 N16G26    29.89F
LETHBRIDGE     PTSUNNY   48  36  61 VRB9      29.88S
MEDICINE HAT   CLOUDY    54  37  54 W8        29.83F
$$

REGIONAL REPORTS...SASKATCHEWAN

CITY           SKY/WX    TMP DP  RH WIND       PRES   REMARKS
SWIFT CURRENT  MOSUNNY   57  32  38 NW13G21   29.74F
REGINA         CLOUDY    61  37  41 NW21      29.71R
SASKATOON      PTSUNNY   59  30  33 W8G17     29.71F
$$



USA.gov is the U.S. government's official web portal to all federal, state and local government web resources and services.